Location: Nairn
(57.5833°N, 3.8667°W)
Time: 19:12:07
(UTC+00:00)

Cosmos 1782 Rocket - Pass Details

Date: 07 August 2020
Orbit: 608 x 631 km, 82.5° (Epoch: 24 September)

Event Time Altitude Azimuth Distance (km) Brightness Sun altitude
Exits shadow 01:50:02 18° 233° (SW) 1,512 5.0 -13.8°
Maximum altitude 01:52:47 37° 292° (WNW) 952 4.5 -13.7°
Drops below altitude 10° 01:56:52 10° 1° (N) 1,977 7.3 -13.5°
Sets 01:59:14 0° 10° (N) 2,885 8.7 -13.4°
